AQI (45)

Current Conditions for Foresthill, CA. Clear skies, Dry   
Visibility: 10 miles
Foresthill Advisory text:

  Summary / Temperature 

Current Temperature
61.1°F
16.2°C
(24/hr Ago)
58.3°F
(Apparent temp)
62.1°F
Comfortable
Wind Chill Graphs
61.1°F 

64.9°F/ 18.3°C
 --- Virtual Temp: 64.1°F ---

 Temp Rate:

 24/hr Difference:

 Avg Running Temp:

 Todays High:

 Todays Low:

 Y-days High:

 Y-days Low:

 Todays WChill:

 Y-days WChill:

 Evapotranspiration:

-1.2°F/hr 

+2.8°F

62.6°F

69.7°F 12:33pm

56.5°F 3:26am

65.7°F 1:45pm

50.7°F 3:54am

52.8°F 12:59am

45.2°F 7:06am

0.062 in

115' Above Ground

 Temperature:

 6'AGL VRS 115'AGL:

 Avg Running Temp:

 Humidity:

 Todays High:

 Todays Low:

 Y-days High:

 Y-days Low:

67.0°F 

+5.9°F

67.8°F

57% 

78.0°F 12:08pm

62.0°F 12:00am

74.0°F 1:05pm

54.0°F 2:38am

Temp & Humidity Graphs

  Wind 

Wind Speed

 Calm

Gusting to

 2.0 mph

Wind from ESE

102°  ESE

Calm

 Avg speed:

 Wind Run:

 Peak Gust:

Calm 

51.0 miles

  22.0 mph 12:54am

  Almanac  

Moon age: 4 days,3 hours,47 minutes,18%

Waxing Crescent
18%
Illuminated
4 days in cycle

 Moonrise:

 Moonset:

 Sunrise:

 Sunset:

 Solar Noon:

10:16am

8:20pm

6:54am

4:44pm

11:50am

1min 38s less daylight tomorrow 

  Solar Radiation 

(Current Solar)
  No Sun Light
(Todays High)
 578 W/m2@10:47am

Rain

 Rain Today:

 Rain Rate (/hr):

 Rain last hour:

 Rain Yesterday:

 This Month:

 Season Total:

2 Days Since Last Dry Day

0.00 in

0.000 in

0.00 in

0.01 in

9.17 in

9.98 in

Updated Time

Updated: 11/22/17  7:32pm

(Updated  sec ago)

Humidity & Barometer

 Humidity:

 Wetbulb:

 Dew Point:

 Barometer:

75% 

56.5°F 

53.1°F 

30.145 inHg 

 Baro Trend:  Steady 
Northern Calif
Preparedness
Fire 
Level 

    UV Index  

(Current UV)
0.0  None
(Todays High) @ 12:01pm
3.0   Medium

National Weather Service Forecast

Tonight

Tonight: Mostly Cloudy
Mostly Cloudy
Thanksgiving
Day
Thanksgiving Day: Chance Light Rain
Chance Light Rain
Thursday
Night
Thursday Night: Chance Light Rain then Mostly Cloudy
Chance Light Rain
Friday

Friday: Partly Sunny
Partly Sunny
Friday
Night
Friday Night: Slight Chance Light Rain
Slight Chance Light Rain
Saturday

Saturday: Chance Light Rain
Chance Light Rain
Lo 55 °F Hi 65 °F Lo 52 °F Hi 64 °F Lo 52 °F Hi 63 °F

Foresthill Probe 2 Stats  
Foresthill Probe 2: is located on Thomas Street
at 3000 feet. The main Foresthill Weather site
is located on Melody ln at the 2860 foot elevation

Calm
60.2°F
15.7°C
Temp Rate:
-1.2°F
Calm
Gusting to
1.0 mph
(Humidity)
78%
Wind from SE
131°  SE
Updated: 22/11/17 - 19:28:51
 Todays High: 69.1°F 12:11
 Todays Low: 54.3°F 00:02
 Rain Today: 0.00 in
 Season Total: 10.43 in

Foresthill Wx: Monthly,Yearly, Highs and Lows 

Foresthill  
This Weather Data is coming from the main Foresthill
Weather site located on Melody ln at the 2860 foot
elevation
Not Foresthill Probe 2
Weather Data
Month
  High
Month
  Low
Year
High
Year
Low
Temp 69.7°F
11/22/17
37.5°F
11/5/17
100.8°F
8/28/17
27.6°F
2/24/17
Humidity 96%
11/20/17
48%
11/19/17
100%
1/1/17
12%
8/30/17
Heat Index 71.9°F
11/22/17
42.8°F
11/18/17
97.6°F
6/19/17
32.5°F
2/24/17
Wind Chill 69.7°F
11/22/17
31.2°F
11/5/17
100.8°F
8/28/17
14.0°F
2/24/17
Wind Gust 33 mph
11/9/17
0 mph
11/1/17
53 mph
10/8/17
0 mph
1/1/17
Barometer 30.33 in
11/18/17
29.84 in
11/16/17
30.69 in
1/27/17
29.29 in
2/17/17
ET 0.08 in
11/1/17
0.00 in
11/1/17
0.28 in
7/17/17
0.00 in
1/1/17
Dew Point 59.0°F
11/21/17
29.3°F
11/8/17
69.7°F
6/19/17
13.1°F
10/9/17
Pacific Satellite US Radar Satellite Imagery Sacramento,CA.  (click to enlarge)
NWS Weather Forecast - Summary
Updated: Wed Nov 22, 2017 - 2:55pm (PST)
Current Interstate Highway Conditions for I-80 & US-50

[I 80: IN THE SAN FRANCISCO BAY AREA - SOLANO CO]
no traffic restrictions are reported for this area.

[I 80: IN THE NORTHERN CALIFORNIA AREA & SIERRA NEVADA]
no traffic restrictions are reported for this area.

[US 50: IN THE SACRAMENTO VALLEY & THE LAKE TAHOE BASIN]
no traffic restrictions are reported for this area.
NWS Weather Forecast: Tonight and Thanksgiving Day (Updated: Wed, 22-Nov-2017 5:11pm PST)
Tonight

Tonight: Mostly Cloudy
Mostly Cloudy

Lo 55 °F
NWS forecast: Mostly cloudy, with a low around 55. East wind around 5 mph.
Thanksgiving
Day
Thanksgiving Day: Chance Light Rain
Chance Light Rain

Hi 65 °F
NWS forecast: A chance of rain after 10am. Partly sunny. High near 65, with temperatures falling to around 60 in the afternoon. East southeast wind 2 to 12 mph. Chance of precipitation is 30%.
YR.NO 10 Day Weather forecast
Last update: 11/22/2017 @ 11:35
Next update: 11/23/2017 @ 00:00
Provided by: 22
      Temperature Precipitation Pressure Wind  
Today
11/22/2017
19:00 00:00 57°F   30.10 inHg Light air from east 3 mph
    (Click to enlarge)
meteogram

    Forecast for next 9 days

      Temperature Precip Pressure Wind  
Thursday
11/23/2017
00:00 06:00 52°F   30.13 inHg Light breeze from east-northeast 5 mph
  06:00 12:00 48°F   30.12 inHg Light breeze from east-northeast 4 mph
  12:00 18:00 66°F   30.13 inHg Light air from southwest 2 mph
  18:00 00:00 55°F   30.09 inHg Light air from east-northeast 2 mph
      Temperature Precip Pressure Wind  
Friday
11/24/2017
00:00 06:00 50°F   30.12 inHg Light breeze from east-northeast 4 mph
  06:00 12:00 43°F   30.08 inHg Light breeze from east-northeast 4 mph
  12:00 18:00 63°F   30.06 inHg Light breeze from southwest 4 mph
  18:00 00:00 50°F   30.01 inHg Light air from east-northeast 3 mph
      Temperature Precip Pressure Wind  
Saturday
11/25/2017
00:00 06:00 50°F   30.00 inHg Light breeze from east-northeast 5 mph
  04:00 10:00 48°F   29.91 inHg Light breeze from east-northeast 6 mph
  10:00 16:00 63°F   29.98 inHg Light breeze from southeast 4 mph
  16:00 22:00 61°F   29.95 inHg Light breeze from southeast 4 mph
  22:00 04:00 54°F 0.21 in 30.04 inHg Light breeze from south-southeast 4 mph
      Temperature Precip Pressure Wind  
Sunday
11/26/2017
04:00 10:00 48°F 0.47 in 30.05 inHg Light air from east 2 mph
  10:00 16:00 50°F 0.39 in 30.07 inHg Light breeze from southeast 6 mph
  16:00 22:00 48°F 0.53 in 29.97 inHg Gentle breeze from south-southeast 12 mph
  22:00 04:00 46°F 0.38 in 30.01 inHg Gentle breeze from south-southwest 10 mph
      Temperature Precip Pressure Wind  
Monday
11/27/2017
04:00 10:00 39°F 0.12 in 30.07 inHg Gentle breeze from southwest 9 mph
  10:00 16:00 39°F 0.16 in 30.20 inHg Light breeze from south 7 mph
  16:00 22:00 39°F   30.20 inHg Light air from east-southeast 3 mph
  22:00 04:00 34°F   30.24 inHg Light breeze from east-northeast 4 mph
      Temperature Precip Pressure Wind  
Tuesday
11/28/2017
04:00 10:00 28°F   30.25 inHg Light breeze from northeast 7 mph
  10:00 16:00 46°F   30.24 inHg Light breeze from north 4 mph
  16:00 22:00 48°F   30.14 inHg Light breeze from northeast 5 mph
  22:00 04:00 30°F   30.24 inHg Light breeze from east 5 mph
      Temperature Precip Pressure Wind  
Wednesday
11/29/2017
04:00 10:00 30°F   30.19 inHg Light breeze from east-northeast 6 mph
  10:00 16:00 50°F   30.22 inHg Light air from east-northeast 1 mph
  16:00 22:00 46°F   30.14 inHg Light air from west-northwest 2 mph
  22:00 04:00 41°F   30.09 inHg Light breeze from east-northeast 5 mph
      Temperature Precip Pressure Wind  
Thursday
11/30/2017
04:00 10:00 41°F   30.05 inHg Light breeze from east-northeast 6 mph
  10:00 16:00 52°F   30.06 inHg Light air from east 3 mph
  16:00 22:00 50°F   30.01 inHg Light air from south-southwest 2 mph
  22:00 04:00 36°F   30.06 inHg Light breeze from east-northeast 6 mph
      Temperature Precip Pressure Wind  
Friday
12/01/2017
04:00 10:00 30°F   30.04 inHg Light breeze from east-northeast 4 mph
  10:00 16:00 50°F   30.10 inHg Light air from south 2 mph
  16:00 22:00 46°F   30.04 inHg Light air from south-southwest 3 mph
  22:00 04:00 39°F   30.09 inHg Light air from southeast 3 mph

NOAA Local Storm Report
KIRKWOOD   ( More )
DATE
11/17/2017
TIME
11:30 AM
COUNTY
EL DORADO
STATE
CA
GEOGRAPHIC
38.70N 120.07W
SOURCE
PUBLIC
HEAVY SNOW MEASURED AT 16.0 INCH
48 hour snow total at kirkwood ski resort. The duration of the heavy snow event was 48 hours.
How Close Are We To this Month's Temperature Record ?
Updated Wednesday, Nov 22, 2017- 7:25:00 PM

Current Temperature: 61.1°F

November's High: Temperature Record 72.8°F - Set on Tue, Nov 6, 2012 - 1:46:00 PM
We are currently 11.7°F Less than this Month's record High

November's Low: Temperature Record 28.9°F - Set on Thu, Nov 26, 2015 - 6:22:00 AM
We are currently 32.2°F More than this Month's record Low

Weather History For Wednesday, November 22, 2017


On this Day - In Weather History ...
Data courtesy of weatherforyou.com
powered by Cumulus v1.9.3 (1059)
Ambient Weather VWS v14.00
Top Contact Website Map Copyright © 2007 - 2017 Foresthillweather.com Never base important decisions on this or any weather information obtained from the Internet